Weather Roundup
Issued by NWS Springfield, MO

Home | Current Version | Previous Version | Text Only | Print | Product List | Glossary On
Versions: 1 2 3 4 5 6 7 8 9 10 11 12 13 14 15 16 17 18 19 20 21 22 23 24 25 26 27 28 29 30 31 32 33 34 35 36 37 38 39 40 41 42 43 44 45 46 47 48 49 50
000
NZUS99 KSGF 270507
HRRSGF

HOURLY WEATHER
NATIONAL WEATHER SERVICE SPRINGFIELD MO
1200 AM CDT SAT MAY 27 2017

......SGF CWA......

CITY           SKY/WX    TMP DP  RH WIND       PRES   REMARKS
SPRINGFIELD    MOCLDY    74  69  85 E6        29.85S
JOPLIN         PTCLDY    74  70  87 E5        29.83S
WEST PLAINS    MOCLDY    73  69  87 SE5       29.89S
ROLLA          CLEAR     66  65  96 CALM      29.86S
OSAGE BEACH    CLEAR     67  66  97 CALM      29.86S
BRANSON        CLOUDY    72  72 100 CALM      29.86F

......SURROUNDING SGF CWA......

CITY           SKY/WX    TMP DP  RH WIND       PRES   REMARKS
CHANUTE        CLEAR     70  64  81 E6        29.83S
PARSONS        CLEAR     66  64  93 CALM      29.84R
COFFEYVILLE    CLEAR     70  70 100 NE5       29.82R
EMPORIA        CLEAR     67  63  87 SE6       29.84S
GROVE OK       LGT RAIN  77  72  83 CALM      29.83R
ROGERS AR      CLOUDY    76  71  85 S7        29.84S THUNDER
SILOAM SPRINGS CLOUDY    75  68  78 S7        29.83S
HARRISON AR    CLOUDY    73  71  93 SE6       29.86S
NEAR YELLVILLE PTCLDY    73  66  78 S5        29.83S

......KANSAS AND MISSOURI......

CITY           SKY/WX    TMP DP  RH WIND       PRES   REMARKS
KANSAS CTY INT PTCLDY    71  63  75 SE7       29.84S
DOWNTOWN KC    CLEAR     72  64  76 NE5       29.83R
COLUMBIA       CLEAR     71  68  90 S3        29.85S
SEDALIA        CLEAR     70  68  93 S3        29.86R
ST JOSEPH      CLEAR     67  65  93 N3        29.83S
ST LOUIS       PTCLDY    76  68  76 SW8       29.84S
SPIRIT OF STL  PTCLDY    71  69  93 SW5       29.83S
KIRKSVILLE     CLEAR     66  61  84 E5        29.88R
WICHITA        CLEAR     71  63  75 SE6       29.84S
TOPEKA         PTCLDY    68  67  96 CALM      29.83R
OLATHE         CLEAR     69  67  93 CALM      29.85R

......TENNESSEE......

CITY           SKY/WX    TMP DP  RH WIND       PRES   REMARKS
MEMPHIS        MOCLDY    79  69  71 SW12G22   29.91F
NASHVILLE      CLOUDY    73  63  70 S7        29.93F

......ARKANSAS.......

CITY           SKY/WX    TMP DP  RH WIND       PRES   REMARKS
FAYETTEVILLE   CLOUDY    75  73  93 S9        29.83F
FT SMITH       CLOUDY    78  72  81 E3        29.81S
LITTLE ROCK    MOCLDY    76  73  91 S7        29.87F

......OKLAHOMA.......

CITY           SKY/WX    TMP DP  RH WIND       PRES   REMARKS
TULSA          PTCLDY    75  70  84 N3        29.78R
PONCA CITY     CLEAR     69  64  84 N3        29.82S
MCALESTER      CLOUDY    82  72  71 S10       29.82R
OKLAHOMA CITY  CLEAR     73  67  81 E7        29.81R

......IOWA............

CITY           SKY/WX    TMP DP  RH WIND       PRES   REMARKS
DES MOINES     PTCLDY    68  63  84 E5        29.85F
QUAD CITIES    CLOUDY    62  57  83 NE6       29.87R

......ILLINOIS........

CITY           SKY/WX    TMP DP  RH WIND       PRES   REMARKS
QUINCY         CLEAR     63  61  93 NE6       29.86R
CHICAGO        CLOUDY    57  53  86 E5        29.85S




USA.gov is the U.S. government's official web portal to all federal, state and local government web resources and services.